Location: Unspecified
(0.0000°N, 0.0000°E)
Time: 01:20:01
(UTC+02:00)

ATLAS V CENTAUR R/B - Visible Passes

Search period start: 20 April 2018 00:00
Search period end: 30 April 2018 00:00
Orbit: 232 x 27472 km, 17.9° (Epoch: 18 April)

Date Brightness Start Highest point End Pass type
(mag) Time Alt. Az. Time Alt. Az. Time Alt. Az.
20 Apr 7.8 07:04:59 14° W 08:04:30 71° NNW 14:16:59 10° E visible
21 Apr 7.7 06:56:44 16° W 07:50:17 71° NNW 14:08:05 10° E visible
22 Apr 7.7 06:48:25 18° W 07:36:35 71° NNW 13:59:05 10° E visible
23 Apr 7.6 06:40:01 20° W 07:23:20 72° NNW 13:49:59 10° E visible
24 Apr 7.6 06:31:32 23° W 07:10:28 72° NNW 13:40:47 10° E visible
25 Apr 7.5 06:22:59 25° W 06:57:57 72° NNW 13:31:29 10° E visible
26 Apr 7.5 06:14:20 28° W 06:45:43 72° NNW 13:22:04 10° E visible
27 Apr 7.4 06:05:37 31° W 06:33:43 72° NNW 13:12:34 10° E visible
28 Apr 7.4 05:56:49 34° W 06:21:54 72° NNW 13:02:56 10° E visible
29 Apr 7.3 05:47:57 37° W 06:10:15 73° NNW 12:53:12 10° E visible
